Flag for Paraguay Weather past 2 weeks in Asuncion, Paraguay

Now
70 °F

Low clouds.


Feels Like: 70 °F
Forecast: 69 / 78 °F
Wind: 3 mph from South

Location: Asuncion / Aeropuerto


UV Index: 5 (Moderate)

Visibility: N/A


Pressure: 29.98 "Hg

Humidity: 94%

Dew point: 68 °F

Location of AsuncionLocation

Historic Weather in Asuncion

°F

Asuncion temperature yesterday

Maximum temperature yesterday: 70 °F (at 12:00 AM)
Minimum temperature yesterday: 68 °F (at 6:00 AM)
Average temperature yesterday: 69 °F

Past Weeks' High & Low Weather Summary

 TemperatureHumidityPressure
High97 °F (Apr 7, 3:00 PM)100% (Apr 9, 10:00 AM)30.27 "Hg (Apr 9, 10:00 AM)
Low50 °F (Apr 14, 6:00 AM)34% (Apr 15, 2:00 PM)29.65 "Hg (Apr 8, 3:00 AM)
Average74 °F80%29.89 "Hg
* Reported Apr 5 4:00 AM — Apr 20 4:00 AM, Asuncion, Weather by CustomWeather, © 2014

Note: Actual official high and low records may vary slightly from our data, if they occured in-between our weather recording intervals... More about our weather records

Advertising

Historic Weather Conditions — Data for Previous 24 hours

 ConditionsComfort  
Time TempWeatherWind HumidityBarometerVisibility
4:00 AM
Apr 20
70 °FLow clouds.3 mph94%29.98 "HgN/A
3:00 AM70 °FOvercast.3 mph94%29.98 "HgN/A
2:00 AM70 °FOvercast.3 mph94%30.01 "HgN/A
1:00 AM70 °FOvercast.No wind94%30.01 "HgN/A
12:00 AM70 °FDrizzle. Mostly cloudy.No wind94%30.01 "HgN/A
11:00 PM
Apr 19
70 °FLow clouds.2 mph94%29.98 "HgN/A
10:00 PM68 °FPassing clouds.2 mph94%29.98 "HgN/A
9:00 PM68 °FPassing clouds.No wind94%29.98 "HgN/A
8:00 PM70 °FPassing clouds.No wind94%29.95 "HgN/A
7:00 PM70 °FPartly cloudy.8 mph94%29.95 "HgN/A
6:00 PM70 °FThunderstorms. Mostly cloudy.5 mph94%29.92 "HgN/A
5:00 PM70 °FThunderstorms. Overcast.5 mph94%29.92 "HgN/A
4:00 PM70 °FThunderstorms. Low clouds.5 mph94%29.95 "Hg3 mi
3:05 PM70 °FThunderstorms. Low clouds.3 mph94%29.92 "Hg4 mi
3:00 PM70 °FThunderstorms. Low clouds.No wind94%29.92 "HgN/A
2:00 PM70 °FThunderstorms. Overcast.6 mph94%29.92 "HgN/A
1:00 PM70 °FThunderstorms. Mostly cloudy.3 mph94%29.95 "HgN/A
12:00 PM70 °FThunderstorms. Mostly cloudy.5 mph94%29.95 "HgN/A
11:00 AM68 °FThunderstorms. Mostly cloudy.5 mph100%29.98 "Hg4 mi
10:00 AM68 °FThunderstorms. Mostly cloudy.5 mph100%29.98 "Hg5 mi
9:30 AM68 °FThunderstorms. Mostly cloudy.9 mph100%29.95 "HgN/A
9:00 AM68 °FThunderstorms. Mostly cloudy.3 mph100%29.98 "HgN/A
8:30 AM70 °FThunderstorms. Overcast.No wind94%29.98 "HgN/A
8:00 AM68 °FThunderstorms. Mostly cloudy.3 mph94%29.98 "HgN/A
7:30 AM68 °FThunderstorms. Mostly cloudy.5 mph94%29.95 "HgN/A
7:00 AM68 °FThunderstorms. Mostly cloudy.3 mph94%29.95 "HgN/A
6:00 AM68 °FThunderstorms. Partly sunny.3 mph94%29.92 "HgN/A
5:00 AM70 °FThunderstorms. Partly cloudy.5 mph88%29.89 "HgN/A
4:00 AM70 °FThunderstorms. Partly cloudy.No wind88%29.89 "HgN/A
Weather by CustomWeather, © 2014

See weather overview